Location: Santiago
(33.4378°S, 70.6505°W)
Time: 07:30:54
(UTC+00:00)

ISS - Pass Details

Date: 18 June 2024
Orbit: 410 x 424 km, 51.6° (Epoch: 13 July)

Event Time Altitude Azimuth Distance (km) Brightness Sun altitude
Rises 21:49:42 0° 299° (WNW) 2,382 3.7 -2.3°
Reaches altitude 10° 21:51:53 10° 291° (WNW) 1,519 1.2 -2.7°
Maximum altitude 21:55:07 40° 220° (SW) 642 -2.7 -3.3°
Drops below altitude 10° 21:58:23 10° 148° (SSE) 1,524 -1.4 -3.9°
Enters shadow 21:59:54 - 142° (SE) 2,122 -0.7 -4.2°
